Terminal Aerodrome Forecast
Issued by NWS

Home | Current Version | Previous Version | Text Only | Print | Product List | Glossary On
Versions: 1 2 3 4 5 6 7 8 9 10 11 12 13 14 15 16 17 18 19 20 21
000
FTUS45 KRIW 310900 AAA
TAFRKS
TAF AMD
KRKS 310940Z 3110/0106 06011KT 5SM -SN SCT016 OVC035
      TEMPO 3110/3112 3SM -SHSN BKN016
     FM311500 28007KT P6SM FEW020 SCT060
     FM311900 28016G26KT P6SM FEW060
     FM010200 29008KT P6SM SCT250=

USA.gov is the U.S. government's official web portal to all federal, state and local government web resources and services.